EHI
48 50 60 59 37 20 18 17 14 12 13 8 2 0 0 1 2 5 15 24 18 7 4 3 3 2 2 3 3 2 2 3 3 1 0 2 2 1 1 0 0 0 0
47 50 58 54 36 22 21 21 16 15 14 8 2 0 1 3 4 5 9 14 13 7 5 5 4 2 2 4 5 3 3 4 3 1 1 2 3 2 1 1 0 0 0
41 45 50 46 35 29 30 28 21 17 13 7 3 3 5 7 6 5 5 7 7 4 3 4 4 3 3 5 8 6 4 4 3 2 1 2 2 2 2 2 1 0 0
31 35 38 37 35 34 34 30 22 16 11 8 5 4 6 8 5 4 4 5 4 2 1 2 2 3 3 5 8 8 6 5 3 2 1 2 2 1 2 2 1 0 0
19 23 27 28 31 31 29 24 21 15 10 6 4 2 3 4 2 1 1 2 1 1 0 1 2 2 2 4 7 10 9 8 8 6 4 4 3 1 1 1 1 0 0
11 15 17 19 22 22 19 18 17 13 7 3 1 0 0 0 0 0 0 0 0 0 0 1 1 1 1 2 6 10 11 12 13 11 10 8 5 2 1 0 0 0 0
8 10 11 13 15 15 14 14 13 8 4 1 0 0 0 0 0 0 0 0 0 0 0 0 0 0 0 1 3 7 10 12 13 15 18 16 10 5 1 0 0 0 0
4 5 7 9 10 13 13 11 9 7 4 1 0 0 0 0 0 0 0 0 0 0 0 0 0 0 0 1 1 2 5 8 11 16 21 21 15 8 2 0 0 0 0
1 1 3 3 6 9 10 8 6 5 4 1 0 0 0 0 0 0 0 0 0 0 0 0 0 0 0 0 0 0 1 4 8 13 18 18 14 8 3 1 1 0 0
0 0 0 0 2 5 6 4 3 2 1 1 0 0 0 0 0 0 0 0 0 0 0 0 0 0 0 0 0 0 0 1 3 7 11 12 9 6 2 1 0 0 0
0 0 0 0 1 2 3 2 1 1 0 0 0 0 0 0 0 0 0 0 0 0 0 0 0 0 0 0 0 0 0 0 1 3 5 6 5 3 2 1 1 1 1
0 0 0 0 0 0 0 0 0 1 0 0 0 1 0 0 0 0 0 0 0 0 0 0 0 0 0 0 0 0 0 0 0 0 2 3 3 3 3 3 3 4 4
0 0 0 0 0 0 0 0 0 1 1 0 1 2 2 0 0 0 0 0 0 0 0 0 0 0 0 0 0 0 0 0 0 0 0 1 1 2 3 3 4 5 5
0 0 0 0 0 0 0 0 0 0 1 1 1 2 3 2 1 1 0 0 0 0 0 0 0 0 0 0 0 0 0 0 0 0 0 0 0 1 2 2 3 4 4
0 0 0 0 0 0 0 0 0 0 1 1 0 1 3 5 5 3 3 3 1 0 0 0 0 0 0 0 0 0 0 0 0 0 0 0 0 0 1 1 1 1 1
0 0 0 0 0 0 0 0 0 0 0 0 0 1 3 6 8 8 8 6 3 1 1 1 1 1 0 0 0 0 0 0 0 0 0 0 0 0 0 0 0 0 0
0 0 0 0 0 0 0 0 0 0 0 0 0 0 1 4 7 10 10 6 3 3 3 4 3 2 1 0 0 0 0 0 0 0 0 0 0 0 0 0 0 0 0
0 0 0 0 0 0 0 0 0 0 0 0 0 0 0 2 4 7 7 5 4 4 6 7 6 3 1 0 0 0 0 0 0 0 0 0 0 0 0 0 0 0 0
0 0 0 0 0 0 0 0 0 0 0 0 0 0 0 1 2 4 5 5 4 4 7 11 10 6 2 1 0 0 0 0 0 0 0 0 0 0 0 0 0 0 0
0 0 0 0 0 0 0 0 0 0 0 0 0 0 0 0 1 2 4 5 6 6 8 12 13 10 5 2 1 0 0 0 0 0 0 0 0 0 0 0 0 0 0
0 0 0 0 0 0 0 0 0 0 0 0 0 0 0 0 0 1 2 4 5 6 7 11 14 12 7 4 2 0 0 0 0 0 0 0 0 0 0 0 0 0 0
0 0 0 0 0 0 0 0 0 0 0 0 0 0 0 0 0 0 0 1 2 3 4 9 12 10 8 5 2 0 0 0 0 0 0 0 0 0 0 0 0 0 0
0 0 0 0 0 0 0 0 0 0 0 0 0 0 0 0 0 0 0 0 0 0 1 5 6 6 6 4 1 0 0 0 0 0 0 0 0 0 0 0 0 0 0
0 0 0 0 0 0 0 0 0 0 0 0 0 0 0 0 0 0 0 0 0 0 0 1 2 2 2 1 0 0 0 0 0 0 0 0 0 0 0 0 0 0 0
0 0 0 0 0 0 0 0 0 0 0 0 0 0 0 0 0 0 0 0 0 0 0 0 0 0 0 0 0 1 0 0 0 0 0 0 0 0 0 0 0 0 0
0 0 0 0 0 0 0 0 0 0 0 0 0 0 0 0 0 0 0 0 0 0 0 0 0 0 0 0 0 1 0 0 0 0 0 0 0 0 0 0 0 0 0
Wind_Speed
9 9 7 7 9 8 9 9 10 10 10 11 11 12 12 12 11 9 6 11 13 14 15 16 16 16 16 16 17 18 19 19 18 17 17 17 17 17 17 17 16 14 13
10 9 9 9 9 9 9 8 10 9 9 8 11 12 12 12 10 11 10 10 15 15 15 15 16 16 17 17 18 18 19 19 19 18 18 17 17 18 18 18 17 16 15
11 10 9 9 9 9 9 8 10 9 9 9 11 11 10 11 10 10 11 8 9 15 16 15 15 15 16 17 18 18 19 18 18 19 19 19 18 18 18 18 18 17 16
11 10 9 8 8 7 7 8 8 8 8 8 8 8 8 8 10 10 10 10 9 8 13 17 15 14 16 17 18 18 18 18 18 18 19 19 19 19 18 18 18 18 18
11 9 7 6 7 7 7 8 7 7 8 8 7 8 8 8 8 10 10 11 10 9 9 11 15 14 16 18 18 18 18 18 18 19 19 20 20 20 20 19 18 18 18
8 7 6 7 7 6 6 7 7 7 7 6 8 7 7 7 8 8 9 10 9 11 11 10 9 12 17 16 16 17 17 18 18 19 20 20 20 20 20 19 19 18 18
6 5 5 5 5 6 7 8 7 9 8 6 6 7 8 9 9 7 8 8 9 9 9 8 8 8 8 17 16 15 16 18 18 19 19 19 20 19 20 20 19 19 19
5 4 4 4 4 5 7 8 8 7 6 6 6 6 7 7 7 8 6 7 7 6 8 9 8 7 8 7 10 17 16 17 18 18 18 18 18 18 19 19 19 19 19
5 4 5 5 5 5 5 6 7 8 6 6 6 6 6 5 4 6 6 6 5 5 6 5 7 7 8 7 7 12 14 13 15 17 18 18 18 18 18 19 19 18 18
5 4 5 5 5 5 5 6 6 6 7 7 6 7 7 5 4 4 7 7 7 6 6 5 5 5 6 6 5 2 7 9 12 15 16 17 17 17 17 18 19 19 19
3 4 4 4 4 5 5 6 5 7 7 8 7 7 7 6 8 6 4 5 6 6 5 5 4 4 3 4 4 1 3 6 8 10 12 14 16 16 17 18 19 19 19
3 3 3 3 4 4 5 5 6 8 8 9 8 7 7 7 8 7 6 6 5 4 4 3 4 3 2 2 1 5 2 2 5 7 9 11 13 15 17 17 19 19 20
5 4 4 3 3 3 4 5 6 7 9 9 9 8 8 8 6 6 6 5 4 4 4 5 3 2 2 1 2 3 3 2 2 3 5 6 8 10 12 13 15 16 17
8 6 6 5 5 4 5 4 5 6 7 9 11 10 8 8 7 7 7 6 6 6 6 5 4 3 2 2 4 2 4 5 3 3 3 3 4 5 6 7 7 8 9
9 9 9 8 7 7 6 5 5 6 7 8 9 10 9 8 8 8 7 7 7 6 5 6 4 5 3 3 3 2 5 9 7 5 5 5 5 5 6 6 6 5 5
12 12 12 11 10 9 9 8 7 6 6 7 8 10 9 8 7 8 8 7 7 7 5 4 5 6 5 4 5 5 8 10 10 9 8 8 8 8 8 7 6 6 5
13 13 14 13 13 12 11 10 9 8 8 8 8 10 11 11 8 7 8 8 8 7 7 4 5 7 7 6 6 5 6 6 8 11 11 10 10 10 10 9 8 8 7
14 14 14 15 15 14 13 12 12 11 10 10 9 9 9 9 11 9 7 9 8 8 8 7 6 6 7 8 7 6 6 6 7 12 12 12 12 11 11 11 10 9 9
14 14 14 15 16 15 15 14 13 12 12 11 10 10 9 8 10 9 10 9 8 8 8 7 7 6 6 7 8 7 7 6 7 9 11 12 12 12 12 12 11 11 11
15 15 15 15 16 16 16 15 15 14 13 12 11 10 10 10 9 9 9 10 9 9 9 8 7 7 7 8 7 7 6 5 5 6 8 9 12 13 13 13 12 12 12
16 15 15 15 15 15 15 16 15 15 14 13 12 11 11 11 9 7 6 6 8 8 8 9 8 8 8 9 8 7 7 6 5 5 7 7 7 7 9 11 12 13 13
16 15 15 16 16 14 13 14 14 15 14 14 13 12 11 11 11 11 9 8 8 9 9 9 8 9 11 11 9 9 9 8 5 4 6 6 5 6 6 8 11 13 13
16 15 15 15 16 15 12 12 15 15 15 13 13 11 10 10 12 11 11 11 11 10 9 8 9 10 11 12 13 13 11 10 6 7 7 6 6 7 8 10 12 12 13
14 14 14 15 15 14 13 14 14 16 16 14 13 13 12 10 10 10 10 11 11 10 10 10 10 8 8 10 12 12 11 9 9 6 5 6 6 7 9 9 11 12 12
13 13 13 14 14 13 12 14 14 13 14 15 14 13 13 13 9 8 10 11 10 9 9 9 7 4 3 8 10 10 12 11 9 7 5 6 8 9 8 9 10 11 12
12 12 12 12 12 12 11 14 15 11 13 13 12 12 11 10 9 11 11 10 11 10 9 9 8 6 8 12 14 13 13 12 10 7 7 7 10 9 7 8 9 9 10
Wind_Direction
240 239 236 238 242 238 229 231 241 242 241 241 240 237 242 239 241 242 228 189 205 219 227 229 228 227 224 219 216 214 212 212 211 211 213 214 213 210 208 206 204 202 201
250 246 242 239 241 242 242 241 242 242 242 243 246 243 241 242 237 239 244 212 202 213 223 228 229 228 226 221 217 215 214 213 210 208 209 212 215 214 211 209 206 204 202
253 250 247 243 244 243 241 242 246 245 241 240 243 246 244 243 240 237 243 247 226 207 212 220 225 228 228 224 219 215 213 212 210 209 209 210 212 214 213 210 208 206 204
258 255 252 250 248 243 237 237 239 239 238 239 242 243 240 238 239 239 240 236 243 242 210 207 215 223 228 226 222 217 214 212 210 208 209 210 211 211 212 212 210 208 206
264 257 254 259 256 244 237 242 234 235 237 234 239 233 239 239 241 240 241 244 240 240 248 198 201 216 226 229 227 223 218 213 211 209 208 211 213 212 211 211 211 211 209
278 268 260 256 251 242 235 234 239 234 247 242 247 245 238 238 236 238 242 241 243 242 242 243 218 212 215 224 227 227 222 215 210 209 209 210 211 212 211 210 211 212 211
294 284 276 264 252 244 238 234 231 227 231 232 239 240 233 231 237 242 242 248 238 237 245 245 248 249 213 208 217 224 224 219 213 210 208 208 209 210 208 208 210 213 213
313 299 291 282 264 253 240 235 229 237 230 213 233 246 238 216 211 227 223 224 236 228 230 230 237 243 258 240 205 209 220 222 218 212 208 207 208 209 208 208 209 212 214
332 321 298 280 263 255 244 235 225 229 235 221 226 246 251 243 192 185 211 218 219 231 238 236 234 238 240 248 240 201 208 218 220 216 210 206 206 206 206 208 208 210 213
332 329 311 291 268 254 252 244 236 235 238 234 214 235 262 310 277 201 191 195 208 224 245 255 249 237 238 243 231 240 199 212 218 219 215 209 207 205 205 207 209 211 213
306 317 318 309 295 275 262 250 248 240 235 241 233 215 218 222 241 266 225 192 200 213 217 231 246 254 247 249 246 203 177 212 218 219 217 213 209 207 208 209 212 214 216
287 288 291 296 292 290 279 267 251 240 243 245 249 239 221 216 218 224 233 225 221 212 215 232 234 224 225 237 144 70 84 211 218 220 217 212 210 208 210 213 216 217 219
274 260 264 269 281 280 279 274 261 254 243 239 237 239 239 238 236 227 235 229 225 214 203 215 192 185 176 172 105 88 115 126 163 192 197 199 200 203 207 212 217 219 220
278 272 251 242 240 246 257 260 265 261 256 247 241 240 241 238 236 230 233 232 223 213 198 196 156 156 137 129 76 273 113 100 104 114 136 159 168 172 179 187 195 197 205
268 258 249 243 239 233 234 239 248 256 259 255 249 241 239 238 235 233 231 234 239 231 200 172 175 145 147 112 109 94 87 85 83 90 96 104 117 128 134 141 146 148 153
275 267 257 249 241 233 229 230 238 237 246 254 255 251 243 242 237 232 228 228 235 248 237 175 164 152 135 128 113 102 93 95 81 80 83 90 98 105 107 110 118 126 130
273 266 259 252 246 240 232 228 237 236 235 241 255 255 247 240 235 231 228 224 224 228 230 202 162 142 147 145 131 119 118 106 93 81 82 85 87 90 92 94 96 101 104
272 265 259 254 248 242 235 230 232 232 234 237 236 244 254 248 236 232 230 226 223 222 225 213 182 161 159 149 133 126 116 102 98 89 86 85 85 87 88 89 89 90 92
273 268 262 255 250 246 241 234 232 231 231 233 235 236 241 250 245 232 226 228 224 219 223 216 197 166 152 148 134 122 112 111 107 109 99 92 88 88 88 88 88 88 88
275 268 263 256 250 247 241 235 230 229 231 230 229 230 232 234 242 243 230 226 226 220 215 218 199 173 158 155 149 143 133 129 121 115 96 97 99 93 91 91 91 90 88
276 270 263 257 249 244 239 232 230 227 226 228 225 225 226 225 232 240 244 232 228 222 214 214 202 182 169 166 165 159 142 129 118 138 131 129 129 119 110 104 98 96 94
277 273 267 259 251 243 232 223 226 231 225 224 225 222 220 211 218 220 237 246 249 239 224 217 206 196 182 176 166 160 150 152 148 165 142 124 121 110 101 93 94 99 98
278 272 266 259 252 245 234 215 216 231 229 224 223 220 224 211 201 214 212 222 235 252 256 245 228 212 188 177 169 168 169 171 147 152 144 121 117 105 98 92 98 100 101
277 272 266 259 253 243 219 210 208 226 233 225 221 218 223 226 209 212 214 216 219 221 231 236 240 232 206 180 176 172 157 132 120 140 149 128 129 116 110 107 101 102 104
278 271 265 259 251 241 214 203 202 221 225 226 221 218 217 222 193 187 222 224 221 219 220 230 248 256 211 169 164 153 149 148 145 151 162 136 135 126 120 118 112 104 104
280 274 266 256 248 240 213 197 198 218 222 221 218 217 211 224 177 178 222 227 223 218 213 201 207 201 186 167 166 173 167 163 150 151 166 151 151 143 130 133 139 143 127